Theta_e
287 287 287 286 286 286 285 286 285 286 285 285 284 284 283 283 283 283 282 282 282 282 281 281 281 281 281 281 280 280 280 280 280 280 280 280 280 280 280 280 279 279 280 280 281 280 280 280 280 281 281 281 281 281 281 282 282 282 282 282 282 282 282 281 279 279 282 285 285 285 286 287 286 287 287 287 287 289 289 289 289 289 289 290 290
287 286 286 286 286 285 285 285 285 285 284 284 283 282 282 282 282 281 281 281 281 280 280 280 279 279 279 279 279 279 279 279 279 278 278 278 278 279 279 278 278 278 278 278 279 279 279 279 279 280 280 280 280 279 280 280 281 281 281 281 281 281 282 280 279 279 278 281 282 284 284 286 284 286 285 285 286 287 287 287 288 288 288 288 288
287 286 286 285 285 285 285 284 284 283 283 282 281 281 280 280 280 279 279 279 280 279 278 278 278 278 278 278 278 278 277 277 277 277 277 277 276 277 277 277 277 277 277 277 278 278 278 278 278 278 279 278 278 279 279 279 280 279 279 280 279 280 281 281 279 278 278 279 282 281 282 283 283 284 285 285 286 286 285 286 287 288 288 288 288
286 286 285 285 284 284 284 283 283 283 282 281 280 279 279 279 279 278 278 278 277 278 277 277 277 277 276 277 276 276 276 276 276 276 276 276 275 276 276 276 277 277 276 277 277 277 277 276 277 277 277 276 277 277 278 278 278 278 278 278 279 279 280 280 280 279 278 277 279 280 281 281 282 284 285 285 284 285 285 286 287 287 287 288 288
285 285 284 284 284 284 283 283 283 282 281 280 278 278 278 278 277 277 277 276 276 276 276 276 276 276 275 275 275 275 275 275 275 275 275 275 275 275 276 276 276 276 276 276 276 276 276 276 276 276 276 275 276 276 276 276 276 277 277 277 278 278 279 279 279 279 278 277 278 280 281 281 282 283 283 282 283 284 284 284 285 285 286 287 288
285 284 284 284 283 283 283 283 282 281 280 278 277 277 277 276 276 276 275 275 275 275 275 275 275 274 274 274 274 274 274 274 274 274 274 274 275 276 276 276 276 276 276 276 276 276 275 275 275 276 275 275 275 275 275 275 275 276 276 276 277 277 277 277 278 278 277 277 277 277 279 279 279 280 282 282 281 281 282 283 284 284 285 285 286
285 284 284 284 283 283 282 282 281 280 279 278 277 276 275 275 274 274 274 274 274 274 273 273 274 273 273 273 273 273 273 273 273 273 273 274 275 276 276 276 275 276 276 275 275 276 275 275 275 275 275 275 274 274 274 274 274 274 275 275 275 275 275 275 276 276 275 275 276 277 277 278 278 277 280 281 281 281 280 280 281 284 285 285 284
284 284 284 283 283 282 281 280 279 278 277 276 275 275 274 274 273 273 273 273 272 272 272 272 272 272 272 272 272 272 272 272 273 273 274 275 275 275 275 275 275 275 275 275 275 275 275 275 275 275 275 274 274 274 274 273 274 273 274 274 274 274 273 273 273 273 273 273 273 274 275 275 276 278 279 279 279 279 281 280 279 280 282 283 284
284 284 283 283 282 281 279 278 277 276 275 274 274 273 273 272 272 272 272 272 271 271 271 271 271 271 271 271 271 271 271 271 271 272 273 274 275 274 274 274 274 274 274 274 275 275 275 275 275 275 274 274 274 274 274 274 273 272 273 273 273 272 272 272 272 272 272 272 272 274 274 274 275 275 275 276 276 276 278 278 278 280 281 281 283
284 283 283 282 280 279 278 277 276 275 274 273 272 272 272 271 271 271 270 270 270 270 270 270 270 270 270 270 270 270 271 271 270 272 274 274 274 274 274 274 274 274 273 273 274 274 274 274 274 273 273 273 273 274 274 275 275 274 273 273 272 272 271 271 271 271 271 271 271 272 271 272 273 274 274 275 276 277 276 277 276 277 277 277 279
283 283 282 280 278 277 276 275 274 273 273 272 271 270 270 270 270 269 269 269 268 268 269 269 269 269 269 269 269 270 270 270 270 273 274 275 274 274 274 273 274 273 273 273 273 273 273 273 273 272 272 272 272 273 274 274 274 274 275 275 274 272 271 270 270 271 270 270 271 271 271 271 272 273 273 274 274 274 274 275 274 274 273 273 272
282 282 280 278 277 276 275 274 273 272 271 270 269 269 268 268 268 268 268 268 268 268 268 268 268 269 268 268 269 269 269 269 271 272 273 274 275 274 273 273 273 273 273 273 272 272 271 271 272 272 272 272 272 272 273 273 274 274 274 274 274 275 275 273 271 270 270 270 270 270 270 270 271 273 273 273 273 274 274 274 274 274 273 273 273
281 279 278 277 276 275 274 273 272 270 270 269 268 267 267 268 267 267 267 267 267 267 268 267 267 268 267 267 267 268 268 269 270 272 273 274 274 274 273 273 273 272 272 272 271 271 270 270 270 271 271 272 272 272 272 272 273 273 274 274 274 275 275 276 277 274 273 272 271 271 271 272 271 272 274 274 275 273 274 273 274 274 275 274 274
280 278 276 276 275 273 272 272 271 270 269 268 268 267 267 267 267 267 267 267 267 266 266 266 266 266 266 266 266 267 267 268 270 271 273 273 274 275 274 273 272 272 271 271 270 270 270 270 270 270 271 271 272 272 272 272 272 272 272 272 273 274 276 276 276 276 276 274 273 271 273 274 272 274 275 276 274 273 273 273 274 274 274 274 276
278 276 275 274 273 272 271 271 270 269 267 267 267 267 267 267 266 267 267 267 266 266 266 265 265 264 265 265 265 265 266 268 270 271 272 273 274 274 273 272 271 270 271 271 270 270 270 270 270 270 271 271 272 272 272 272 271 271 272 272 272 273 274 275 275 275 275 275 274 274 274 275 275 275 276 276 275 275 276 275 276 276 276 277 277
277 276 274 273 272 272 271 270 269 268 267 267 266 267 266 266 266 266 265 266 266 265 265 265 264 264 264 264 264 264 266 268 269 270 271 273 274 272 271 270 270 270 270 270 270 271 271 271 270 270 270 271 273 274 274 273 272 272 272 272 273 274 274 276 278 278 277 276 276 276 276 277 278 277 278 278 277 278 278 278 277 276 275 273 272
276 275 273 273 272 271 271 270 268 268 267 266 266 266 266 265 265 265 264 265 265 265 264 264 264 263 263 263 262 263 264 266 268 270 271 272 272 270 270 270 270 269 270 270 271 271 271 271 271 271 271 271 273 275 276 276 273 272 272 272 273 273 274 276 278 279 280 280 280 280 280 280 280 280 281 281 279 278 277 275 273 274 272 270 271
276 274 274 272 271 271 270 269 268 267 266 266 266 267 266 266 265 264 264 264 264 264 263 263 263 263 262 262 262 262 262 265 267 269 270 271 271 270 270 269 269 269 270 270 271 271 272 273 273 272 272 272 274 276 277 276 274 273 273 273 272 272 273 275 275 276 279 279 279 279 279 280 280 280 280 280 280 279 275 272 273 273 271 271 270
275 274 274 272 271 270 269 268 267 266 266 266 265 265 265 264 265 264 263 263 263 263 262 262 262 262 262 262 262 262 262 264 266 268 270 271 271 270 270 269 269 269 270 270 271 271 272 273 274 274 274 274 277 278 278 277 274 274 274 273 272 272 273 275 275 275 275 275 276 276 277 278 277 277 277 279 279 279 277 275 275 273 271 271 271
276 275 273 271 270 268 268 266 266 265 265 265 264 264 264 263 262 263 263 263 263 263 262 262 261 261 262 261 261 262 262 263 264 268 269 271 272 271 270 269 269 269 270 270 270 271 272 272 273 275 276 277 277 278 278 278 276 275 275 273 273 273 275 276 276 275 275 275 275 276 275 276 276 276 277 276 276 277 276 276 276 275 273 272 272
275 273 272 270 268 267 267 265 265 264 265 263 264 262 263 263 263 262 261 262 261 261 260 260 260 260 261 262 262 262 263 262 263 267 269 271 272 272 271 270 271 270 271 271 271 271 272 272 273 275 276 277 277 278 279 279 278 275 275 274 275 276 277 275 275 276 275 274 274 274 274 275 275 275 275 275 275 276 276 276 276 276 274 272 271
273 271 270 269 267 266 265 264 264 262 262 262 262 261 262 261 261 261 262 261 259 259 259 260 260 261 262 262 262 262 263 264 264 267 269 271 272 273 272 272 272 272 271 271 271 272 272 273 273 275 276 277 277 278 279 278 278 276 275 277 278 278 275 274 273 272 272 272 272 272 272 272 272 273 273 273 274 274 275 275 275 275 275 274 273
271 270 268 267 265 263 263 262 261 260 260 260 260 261 261 259 259 259 259 259 259 258 259 259 260 261 261 263 263 263 263 264 266 267 269 271 272 273 274 273 275 273 272 271 272 272 273 273 273 274 276 277 277 277 277 277 275 274 276 277 277 276 274 271 271 270 270 270 270 269 270 270 270 270 271 271 272 273 273 274 274 274 274 274 274
269 267 266 264 263 262 261 260 260 260 260 260 259 259 260 260 259 260 260 260 261 261 262 262 261 261 261 262 263 264 265 266 267 269 269 271 272 273 274 274 275 273 274 273 272 272 271 271 272 275 275 275 275 275 275 274 272 274 274 275 274 272 270 269 269 268 268 268 268 268 268 269 270 269 270 271 272 272 273 273 273 273 273 273 273
266 265 264 263 262 261 260 260 259 259 259 259 260 260 258 258 260 261 259 260 261 261 262 262 261 261 261 261 263 265 266 267 268 269 270 271 272 273 274 274 275 276 273 272 272 271 273 274 274 273 273 273 272 272 271 270 272 272 272 272 270 268 268 267 267 267 266 266 267 268 268 269 270 270 271 272 272 272 272 272 273 273 273 273 273
265 264 263 262 261 260 259 259 258 258 258 260 260 262 261 260 261 262 261 261 261 260 261 261 261 261 261 262 263 265 266 267 268 268 269 270 271 272 274 274 274 274 273 272 273 273 272 272 271 270 270 269 268 267 267 267 270 270 269 268 266 266 266 266 266 265 265 266 266 267 268 269 269 271 271 271 271 270 271 271 272 272 272 272 272
264 264 262 262 260 259 259 261 260 258 258 259 260 260 260 260 260 260 261 261 261 261 261 260 261 261 261 262 263 265 266 267 267 268 269 270 270 271 272 273 274 273 271 270 270 268 267 267 267 268 267 268 267 267 267 267 266 265 265 265 265 265 265 265 264 264 265 265 266 267 268 269 269 269 269 270 270 271 272 271 271 271 272 272 271
265 264 262 262 261 260 261 260 260 262 260 260 260 260 260 260 260 261 261 262 261 261 261 261 261 261 262 263 264 264 265 266 267 268 268 269 271 271 272 272 271 271 269 270 267 265 265 265 265 264 264 264 264 264 264 264 264 264 264 264 264 264 265 266 266 265 265 266 265 266 266 267 267 268 269 269 270 271 272 272 271 271 272 272 270
264 264 262 262 261 260 261 261 261 262 261 259 260 261 261 260 260 260 261 261 261 261 261 262 262 262 262 262 263 264 265 266 267 270 270 272 272 271 271 271 271 271 270 271 265 265 264 263 263 263 263 262 262 262 263 263 263 263 263 263 264 264 264 264 263 263 264 264 264 264 265 265 266 267 268 268 269 270 272 271 272 271 272 272 270
263 263 262 261 261 260 260 260 259 260 260 261 260 259 259 262 261 260 260 262 264 266 265 262 263 263 263 264 265 264 265 267 271 272 273 273 273 274 274 274 273 271 271 270 266 263 262 262 262 261 261 261 261 261 262 262 262 262 262 264 263 263 263 263 263 264 264 264 264 264 264 265 265 266 267 268 269 270 271 272 271 272 271 271 270
264 263 261 261 261 260 260 260 259 260 260 259 260 260 260 261 265 266 266 266 267 268 269 270 271 271 267 265 267 271 272 272 272 272 272 272 273 274 273 273 272 271 270 267 264 262 261 261 261 261 261 261 261 261 261 261 261 261 261 262 262 263 263 263 264 264 264 264 264 264 265 265 265 266 266 267 267 268 269 270 271 271 271 271 270
265 264 262 261 260 260 261 260 259 259 259 260 259 259 260 260 262 265 266 266 267 268 269 270 270 270 271 270 270 269 270 271 271 271 272 272 273 273 272 271 270 270 269 266 262 261 261 260 260 261 261 260 260 260 260 260 260 260 261 261 261 262 263 263 264 263 263 264 264 264 265 265 265 266 266 266 267 267 267 268 269 269 270 271 271
264 264 262 260 260 260 260 260 260 260 259 259 258 258 259 260 261 262 263 265 265 266 268 268 268 269 269 270 270 269 269 270 271 271 271 272 272 272 271 269 268 268 266 262 260 260 260 260 260 260 260 260 260 260 260 260 260 260 260 260 261 262 263 263 264 264 264 264 265 265 265 265 265 265 266 266 266 265 266 267 268 269 269 269 270
262 263 261 260 260 260 260 260 260 260 260 260 259 259 259 259 259 259 259 260 262 264 265 265 266 267 266 267 268 268 269 269 270 270 270 271 271 270 268 265 266 265 263 260 260 259 260 259 260 259 260 260 260 260 259 260 260 260 260 261 261 262 262 263 264 264 264 265 265 265 265 265 265 264 264 265 265 266 266 266 267 267 268 268 269
261 259 258 259 261 260 261 261 260 259 259 259 258 258 258 258 258 257 257 258 259 260 260 261 262 263 263 264 265 267 268 268 269 269 270 270 269 268 266 263 261 261 260 259 259 259 259 259 259 259 259 259 259 259 259 259 259 260 260 261 261 262 262 263 263 264 265 265 264 264 265 265 264 265 265 264 264 264 265 265 266 267 267 268 268
260 260 259 258 259 261 260 260 260 259 259 259 258 258 258 257 258 258 258 257 257 257 258 259 259 260 262 264 265 266 266 267 267 268 269 268 266 265 261 260 260 260 259 259 259 259 259 259 259 259 259 259 259 259 259 259 259 260 260 260 261 261 262 263 264 264 265 265 265 265 265 265 265 265 265 265 264 264 265 265 266 267 267 267 268
259 260 260 259 259 260 260 259 259 259 259 258 258 257 257 257 257 257 257 257 257 257 257 257 258 258 260 260 260 262 264 265 266 267 268 266 265 261 259 259 258 258 258 258 258 258 258 258 259 258 258 258 258 259 259 259 259 259 260 261 261 261 262 263 264 264 264 264 265 265 264 264 265 265 264 264 264 265 265 265 266 266 267 267 268
259 259 260 259 259 259 258 258 257 257 257 258 257 257 257 257 257 257 257 257 257 256 256 257 257 257 257 258 260 259 259 262 264 265 266 263 260 259 258 258 257 257 258 258 258 257 257 258 258 258 258 258 258 258 258 258 259 260 260 260 261 261 263 264 264 264 264 265 265 265 265 265 265 265 265 264 264 264 265 265 266 265 266 267 268
257 258 258 259 259 258 258 258 257 257 257 257 257 257 256 256 256 256 256 256 256 256 256 256 256 256 257 257 257 258 258 259 260 261 261 261 259 258 257 257 257 257 257 257 257 257 257 257 257 257 257 258 258 258 258 258 259 259 259 260 260 261 262 263 264 264 264 264 265 265 265 265 265 265 265 264 264 265 265 265 265 266 265 266 267
257 258 258 259 259 259 258 257 257 257 256 256 256 256 256 256 256 256 256 255 255 255 256 255 256 256 257 256 256 257 257 258 260 261 260 260 259 258 257 256 257 256 256 256 257 256 256 256 257 257 257 257 257 257 258 258 258 259 259 260 260 261 262 263 263 264 264 264 264 265 265 264 264 265 265 265 265 265 265 265 265 266 266 266 267
258 258 257 259 259 259 258 257 257 257 257 256 256 256 255 255 255 255 255 255 255 255 255 255 255 256 256 257 260 261 259 259 260 260 259 258 258 257 257 256 256 256 256 256 256 256 256 256 256 256 256 256 257 257 257 257 258 258 259 259 260 261 262 263 263 264 264 264 264 264 264 264 264 264 264 264 266 266 265 266 266 266 266 267 267
258 257 257 257 258 258 257 257 257 256 256 255 255 255 255 255 255 255 254 254 254 254 255 255 255 256 257 259 260 262 261 260 258 258 258 257 256 256 256 256 256 256 256 256 256 255 255 255 255 255 255 256 256 256 257 257 257 257 258 258 259 260 261 262 263 263 264 264 264 264 264 264 264 264 264 265 264 265 265 265 265 265 266 267 267
256 256 257 256 256 256 256 256 256 255 255 255 255 255 254 254 254 254 254 254 254 254 254 254 255 256 255 258 258 260 259 258 256 256 255 256 255 255 255 255 256 256 256 255 255 255 255 254 254 255 255 255 255 255 256 256 257 257 257 258 259 259 260 261 262 263 264 264 264 264 264 264 264 264 264 264 264 264 264 264 265 265 266 266 267
255 255 255 255 255 255 255 255 255 254 254 254 253 254 253 253 254 254 254 253 254 254 254 254 255 255 255 255 256 256 256 255 255 255 254 254 254 255 255 256 256 255 255 255 255 255 254 254 254 254 254 254 255 255 255 256 256 256 256 257 258 259 260 261 262 263 263 263 264 264 264 263 263 263 263 263 264 263 264 264 264 265 265 266 266
254 255 254 254 254 254 254 254 254 254 253 253 253 253 253 253 253 253 253 253 253 254 254 254 254 254 254 254 254 254 254 254 254 254 254 254 254 254 255 255 254 254 254 254 254 254 253 253 253 253 253 254 254 255 255 255 256 256 257 257 257 258 259 260 262 263 263 263 264 264 264 263 262 262 262 263 263 263 263 264 264 264 265 265 265
254 254 254 254 254 253 253 253 252 253 253 253 253 253 253 253 253 253 253 253 253 253 253 254 254 254 254 254 254 254 254 253 253 253 253 253 253 254 254 254 254 253 253 254 254 253 253 253 253 253 253 253 253 254 255 255 255 256 256 257 257 258 260 261 262 263 263 263 264 264 263 262 261 262 262 262 263 263 263 263 263 264 264 264 264
252 253 254 254 254 253 253 253 252 252 252 252 252 252 253 253 252 252 252 252 253 253 253 253 253 254 254 254 253 253 253 253 253 253 253 252 252 253 253 253 253 253 253 253 253 253 252 252 252 253 252 253 253 253 253 254 255 256 256 257 257 258 259 261 261 261 261 263 265 264 262 261 260 261 262 262 262 262 262 262 263 263 263 264 264
252 253 253 253 253 253 253 253 252 252 252 252 252 252 252 252 252 252 252 252 252 252 253 253 253 254 253 253 253 253 252 252 252 252 252 252 252 252 252 251 251 252 252 252 252 253 253 253 252 252 252 252 252 252 253 254 254 255 255 256 257 257 258 258 259 260 261 263 265 264 262 261 261 261 261 261 261 261 261 262 262 263 263 263 263
253 253 253 253 253 253 253 252 252 252 253 252 252 252 252 252 252 253 253 253 253 253 253 253 253 253 253 252 252 252 252 251 251 251 252 252 252 252 252 251 251 251 251 252 252 252 252 252 252 252 252 252 252 252 252 253 253 254 254 255 255 256 257 257 258 259 261 263 265 264 261 260 260 260 260 260 261 261 261 261 261 261 262 262 262
252 252 253 253 253 253 253 253 253 253 253 253 252 252 252 252 252 252 252 252 252 252 252 252 252 252 252 252 251 252 252 251 251 252 252 252 252 252 252 251 251 251 251 251 252 252 252 252 251 251 251 252 252 252 252 253 253 254 254 254 255 256 256 258 260 261 263 265 265 263 261 260 259 260 260 260 261 261 260 261 261 261 261 261 261
252 252 253 253 253 253 253 253 253 253 252 252 252 252 252 252 252 253 253 252 252 252 253 252 252 252 251 251 251 251 251 251 251 252 252 252 252 252 251 251 251 251 251 251 251 252 252 252 252 252 252 252 252 252 252 253 253 253 254 255 256 257 259 261 262 263 264 265 265 263 261 260 259 259 260 261 261 261 260 260 260 260 261 261 261
Wind_Speed
7 7 6 7 7 7 7 6 6 6 6 6 6 5 4 4 4 3 3 3 3 4 4 4 4 4 5 4 5 5 5 5 5 5 4 5 5 5 5 5 6 5 5 6 5 5 6 7 7 7 7 7 7 7 8 8 8 8 8 8 9 8 8 10 13 16 15 10 10 12 11 12 13 11 13 12 11 10 10 10 11 11 11 10 10
7 7 6 6 7 7 7 6 6 6 6 5 5 5 4 4 3 3 3 3 3 3 4 3 4 4 4 4 4 4 5 5 5 5 5 5 5 4 5 6 6 6 5 6 6 5 6 7 7 7 7 8 8 8 8 8 8 8 8 8 9 9 8 10 12 13 18 15 12 11 11 10 14 11 12 13 13 11 13 12 10 10 10 11 11
7 7 7 7 8 7 7 6 6 6 6 5 5 4 4 4 3 3 3 2 2 3 3 3 3 3 3 3 4 4 5 5 5 5 5 6 6 6 6 6 6 6 7 7 7 7 7 7 8 8 7 8 9 8 8 8 8 9 10 9 10 10 10 10 11 14 16 17 14 14 12 11 11 13 12 12 13 13 14 13 12 10 9 10 11
7 7 7 8 8 8 7 6 6 6 5 4 5 4 3 3 3 2 2 2 2 2 2 2 3 3 3 4 4 4 5 5 5 5 5 6 6 7 6 7 6 7 7 7 8 7 8 8 8 9 9 9 9 9 8 8 9 9 10 10 10 11 10 10 11 12 14 17 16 14 13 13 12 13 11 12 13 13 12 13 13 12 12 11 11
8 8 9 9 8 7 7 6 6 6 5 4 5 4 3 3 2 2 2 1 1 1 2 2 2 3 3 4 4 4 5 5 5 5 5 5 6 6 7 6 6 7 7 7 7 8 8 8 9 9 9 10 9 8 9 11 10 10 10 10 10 10 9 10 12 12 14 16 17 14 13 14 13 14 13 13 14 13 13 13 13 13 13 13 11
9 9 9 9 7 8 7 6 6 6 5 5 4 3 3 2 2 2 1 1 1 1 1 2 2 3 3 3 4 4 5 5 5 5 5 6 6 6 6 6 6 7 7 7 7 7 8 8 9 9 9 9 10 10 10 12 11 10 11 11 11 11 11 12 11 12 13 15 15 17 15 13 13 12 13 13 13 14 14 14 14 13 13 13 12
10 9 8 8 8 7 6 6 5 5 5 4 3 3 2 2 2 2 1 0 1 0 1 1 2 2 3 3 4 4 5 4 4 5 5 6 6 6 6 7 7 6 6 7 7 7 8 8 8 8 9 9 10 10 11 12 10 12 11 12 11 11 12 11 11 13 13 14 14 14 15 13 12 14 13 13 14 13 14 14 14 11 12 12 12
9 9 8 7 7 7 6 5 5 5 4 4 3 2 2 2 2 2 1 1 1 1 1 1 1 2 2 3 4 4 4 4 4 4 5 6 6 6 7 7 7 7 8 7 7 8 8 8 8 8 8 8 10 11 12 11 11 12 11 11 11 12 12 11 11 11 12 13 13 14 13 14 13 12 12 13 12 11 10 11 14 15 13 13 14
9 9 8 8 7 6 6 5 5 5 4 4 3 2 2 2 2 2 1 1 1 1 1 1 2 2 2 3 4 4 4 3 3 4 6 7 7 7 7 8 8 9 9 9 8 8 8 8 8 8 10 13 17 15 15 14 12 12 11 11 12 12 11 11 11 11 11 12 13 12 13 13 12 12 12 11 12 13 13 13 14 14 14 14 13
9 8 8 7 7 6 6 5 5 5 4 4 3 3 3 2 2 2 2 1 1 1 1 1 1 2 3 3 4 3 3 2 4 10 10 8 8 7 7 8 8 9 10 10 10 9 9 8 9 13 14 15 15 16 16 16 16 13 12 11 11 11 11 12 11 11 11 13 12 12 13 13 13 13 14 14 14 14 14 12 13 13 13 13 14
8 9 8 7 7 7 6 6 5 5 4 3 3 3 3 2 2 2 2 1 1 0 1 1 1 2 2 3 4 4 4 3 8 11 11 11 9 8 8 8 8 9 9 10 10 10 9 9 9 11 12 12 11 14 16 17 17 17 17 17 15 12 12 12 11 12 12 12 12 12 13 15 14 13 13 14 13 14 13 12 13 13 12 12 15
9 8 7 8 7 7 6 6 6 5 4 4 4 3 2 2 2 2 1 1 1 0 1 1 2 2 2 3 4 4 5 6 10 11 12 12 11 9 8 8 8 8 9 9 9 9 9 9 9 8 9 10 12 13 14 15 16 17 17 17 17 17 17 13 13 13 13 13 14 13 13 14 14 12 12 12 13 14 13 14 14 14 15 14 14
8 8 8 8 8 6 6 6 5 5 4 4 3 3 2 2 2 2 2 1 1 1 1 1 2 2 3 4 5 5 6 7 10 12 12 12 12 11 8 8 8 9 9 9 10 10 9 10 10 9 8 13 12 11 11 12 15 17 17 17 17 18 19 20 20 16 15 16 16 16 13 14 15 13 12 14 15 16 15 14 14 14 14 16 17
8 8 8 7 7 7 6 6 5 5 4 4 3 3 3 3 2 2 2 2 2 1 1 2 2 3 3 4 5 6 6 7 11 12 12 13 13 11 9 9 8 9 9 9 9 9 10 11 11 10 10 11 11 12 13 14 14 13 13 13 14 17 20 22 23 24 21 16 16 16 15 14 15 14 14 14 15 14 14 15 15 15 14 15 17
8 8 8 7 7 6 7 6 5 5 5 4 4 4 4 3 3 3 2 2 2 2 1 2 2 3 4 4 5 6 6 9 11 13 13 13 13 12 8 7 7 8 8 9 9 10 11 11 12 13 13 13 12 15 15 15 14 13 13 13 14 16 16 16 16 15 14 14 16 17 16 15 16 16 15 14 16 15 14 15 17 17 17 16 16
8 8 7 8 8 7 7 6 5 6 5 5 5 5 4 4 3 3 2 2 2 2 2 2 3 4 4 5 5 7 7 10 12 12 13 12 13 8 6 7 8 8 8 9 9 10 10 11 11 12 13 14 18 22 20 16 15 14 15 15 16 16 16 17 20 20 19 18 17 17 17 19 22 20 18 16 16 14 14 13 12 12 14 14 14
9 8 7 8 9 8 8 7 6 6 6 6 5 5 5 4 3 3 2 2 2 2 2 3 3 4 5 5 6 7 7 9 11 13 13 13 10 6 7 7 8 8 9 9 10 10 10 11 12 14 15 15 19 22 22 22 15 15 16 15 13 13 13 14 21 25 26 28 30 30 30 29 28 27 25 27 20 16 14 14 15 13 14 15 14
9 8 9 8 9 8 8 7 7 7 6 6 6 5 4 3 3 3 3 3 3 3 2 3 4 4 5 6 5 6 7 9 12 13 13 12 10 8 7 7 8 8 9 10 9 10 12 18 19 16 17 17 20 23 24 21 16 15 16 17 18 16 14 14 13 15 22 26 27 27 27 27 26 25 24 25 24 20 15 17 15 13 15 14 15
10 11 10 9 8 8 7 7 7 7 7 6 5 5 5 4 3 3 2 2 2 2 3 3 3 4 5 6 8 9 8 9 11 12 12 12 9 7 7 7 8 8 9 10 10 10 13 14 18 18 17 19 24 24 25 21 16 15 16 17 15 14 14 15 15 15 14 13 14 15 15 18 17 15 17 23 24 22 17 16 13 13 14 14 14
11 8 8 8 7 6 6 7 7 6 6 5 5 4 4 3 3 3 2 2 2 2 3 3 4 4 5 6 6 6 7 7 8 12 12 12 11 8 7 7 8 9 9 10 11 11 11 11 12 17 21 22 23 24 26 27 21 18 17 15 14 15 12 13 13 14 14 14 13 11 12 12 12 13 14 15 16 16 16 15 14 13 14 15 15
8 8 7 7 7 7 6 7 7 6 5 6 5 4 3 3 3 3 2 2 2 2 3 4 4 5 5 5 6 6 6 7 8 11 12 12 11 10 7 8 8 9 10 11 9 8 10 12 13 17 20 22 25 27 28 29 27 18 14 13 13 16 19 13 13 15 9 9 9 11 11 10 11 11 11 12 12 12 13 14 15 14 14 14 15
8 6 7 8 7 6 6 5 5 5 5 5 5 4 3 3 3 3 2 2 3 4 4 4 4 4 4 5 6 6 7 9 7 10 12 12 11 12 8 8 9 10 11 10 11 11 11 9 10 16 23 25 26 27 29 28 28 17 15 21 25 24 18 13 9 8 9 10 10 10 10 10 10 10 11 11 10 11 12 12 12 13 13 13 13
7 7 7 8 8 7 6 7 5 4 5 5 5 4 4 3 3 3 3 3 4 4 4 4 4 4 4 4 4 5 6 6 10 8 10 11 12 12 13 11 14 10 10 11 11 10 9 11 13 20 24 26 26 26 26 27 21 15 24 25 25 25 18 7 9 9 9 9 9 9 9 9 9 9 9 10 10 12 12 12 12 13 13 13 15
8 10 11 12 9 7 7 6 5 5 6 5 5 4 4 3 3 3 3 3 3 3 3 3 3 3 3 3 4 4 4 5 7 9 9 11 11 12 13 14 15 10 10 9 8 9 11 12 14 24 25 25 25 25 25 23 17 23 22 23 22 18 9 9 7 8 8 8 8 9 8 8 8 9 9 10 11 12 13 13 14 14 14 14 15
12 12 12 11 8 6 6 5 5 5 5 5 5 4 4 4 3 3 3 3 3 3 3 2 3 3 3 4 3 3 3 4 5 7 10 11 11 12 14 15 15 14 9 8 9 10 15 20 22 23 24 23 22 21 17 16 18 19 19 18 16 8 8 8 8 8 8 9 9 9 10 9 9 11 11 12 13 13 12 12 13 13 13 14 14
13 14 9 6 6 6 6 4 4 4 5 4 4 3 4 4 4 3 3 3 3 3 3 2 3 3 3 3 3 3 5 5 6 6 7 8 8 12 15 15 12 12 13 10 15 18 16 18 22 20 17 14 12 9 10 10 16 17 16 15 8 8 8 8 9 9 9 9 10 10 10 10 10 11 12 12 11 11 11 11 11 12 12 12 12
12 8 8 6 6 6 7 6 5 4 4 4 3 3 3 3 3 4 4 4 3 3 3 3 3 3 3 3 3 5 5 5 6 6 5 6 7 8 9 8 9 11 6 7 8 5 9 11 10 13 11 14 13 13 11 12 10 9 8 8 8 7 7 7 8 9 10 10 10 10 10 10 10 11 10 10 10 10 10 11 11 12 12 12 13
11 9 9 7 7 7 7 7 6 4 5 5 4 4 4 4 5 5 5 4 3 4 3 3 4 3 3 3 4 6 6 6 6 6 6 6 7 8 8 7 6 4 4 7 2 5 6 8 8 6 6 6 6 6 6 6 8 9 8 8 8 8 9 12 11 8 8 9 10 10 11 10 10 10 10 10 11 11 10 10 11 12 11 11 11
11 10 7 5 5 5 5 5 5 4 4 4 3 3 4 5 5 5 5 4 4 4 4 4 4 4 4 4 6 7 6 6 6 7 8 12 11 9 8 7 6 4 8 10 3 4 4 5 5 6 5 7 7 7 7 7 7 8 9 9 8 8 8 7 8 8 8 9 10 10 11 11 11 10 11 11 11 11 11 11 12 12 13 12 13
8 6 6 6 5 5 5 4 3 3 3 3 3 4 6 10 7 5 4 9 14 14 11 7 6 5 6 7 6 7 7 8 12 14 15 15 15 16 14 13 12 9 12 10 5 4 4 5 5 5 6 6 8 8 8 9 10 10 9 9 8 8 8 8 8 8 9 10 10 10 10 10 11 11 11 12 12 11 12 13 12 12 12 11 11
6 5 6 6 5 5 4 4 4 3 3 2 2 3 2 5 13 16 14 11 12 13 15 17 17 15 10 7 9 18 21 19 16 15 15 15 15 15 13 12 10 10 11 5 3 3 4 4 5 5 6 7 8 9 9 10 10 10 10 9 8 8 9 8 9 9 10 10 10 10 10 10 11 11 11 12 12 12 12 11 11 12 12 12 12
7 7 6 4 6 5 4 4 4 4 3 3 3 3 3 3 3 9 13 13 12 12 13 13 13 13 14 13 10 7 9 12 14 14 14 14 15 14 12 8 8 10 8 5 2 2 3 4 4 5 7 8 8 8 8 8 9 9 10 10 10 9 9 9 10 11 10 9 9 10 10 10 10 11 11 11 12 12 12 12 11 12 12 12 13
6 5 5 5 5 6 4 4 4 4 4 4 4 4 3 3 3 2 2 7 9 12 12 12 11 11 10 10 11 11 12 12 14 14 14 14 14 12 9 6 8 7 5 2 1 3 3 3 4 5 6 8 8 7 7 8 8 9 8 9 10 10 10 11 12 10 9 10 10 10 10 10 11 11 11 11 11 11 12 12 12 12 12 13 13
8 6 5 6 6 5 5 5 5 4 4 4 4 4 4 3 2 2 3 4 2 6 8 7 5 5 6 8 10 12 12 13 13 13 13 14 12 9 5 5 5 1 2 1 1 3 3 3 4 4 5 7 8 8 8 8 8 8 9 9 9 10 11 11 10 10 9 10 10 11 11 10 10 11 11 11 11 11 11 12 12 12 12 12 13
4 4 7 6 5 5 4 4 4 4 4 4 4 4 4 3 3 3 3 3 3 4 3 2 3 4 5 7 9 11 12 12 11 12 13 11 6 5 6 3 2 1 1 1 2 2 3 3 4 5 5 7 7 8 8 8 8 8 8 9 9 10 10 10 10 10 10 11 11 11 11 11 11 11 11 11 11 12 12 12 12 12 13 13 13
5 5 5 6 4 4 4 4 4 4 4 4 3 3 3 3 3 3 3 4 4 4 5 4 3 5 9 11 11 10 10 10 11 11 12 4 5 6 2 2 2 2 1 1 2 3 3 3 4 5 6 7 7 7 8 8 8 8 8 9 9 9 10 10 10 10 11 11 11 11 12 11 11 11 11 11 12 12 12 12 13 13 13 13 13
5 4 5 5 5 4 4 4 4 4 4 3 3 3 3 3 3 4 3 4 4 4 4 5 5 4 4 3 4 7 9 10 10 11 6 4 5 3 0 1 2 2 2 2 2 3 3 3 3 4 6 7 7 8 8 8 8 8 9 8 9 10 10 9 11 11 11 11 11 11 12 11 12 12 11 12 12 11 11 12 12 13 14 16 16
4 4 4 5 5 4 4 4 4 5 4 4 3 3 3 3 4 4 4 4 5 4 5 5 5 5 4 2 1 2 5 9 10 9 7 0 1 0 1 2 2 3 3 2 3 3 3 3 3 4 6 6 8 7 8 8 8 8 8 9 9 9 13 12 11 11 11 10 10 11 11 12 11 11 11 11 11 12 12 12 12 13 14 15 12
3 4 6 7 6 5 4 4 4 4 4 4 3 3 3 3 4 4 5 5 6 6 5 4 4 4 4 2 2 2 4 3 2 3 3 2 1 1 2 2 3 3 3 3 3 3 3 3 4 4 5 6 8 7 7 8 8 8 8 8 9 9 9 9 10 10 10 10 10 11 11 11 11 11 11 11 11 11 12 13 12 12 12 13 13
4 4 6 9 5 6 5 4 4 4 3 3 4 4 4 4 5 4 4 5 5 4 4 4 5 5 3 1 2 2 2 4 4 4 4 5 3 2 2 3 3 3 3 3 3 3 3 4 4 4 5 5 6 8 7 7 7 8 8 7 8 9 9 9 9 10 10 10 10 11 11 11 11 11 11 11 11 11 12 12 12 12 12 12 13
4 4 5 7 6 4 5 4 4 4 3 3 3 3 4 4 4 4 5 5 4 4 5 5 5 4 3 5 9 9 5 6 6 6 4 4 3 3 3 3 3 3 3 4 4 3 3 4 4 4 5 5 6 6 7 7 7 7 7 8 8 8 9 9 10 10 10 11 10 11 11 11 11 11 11 12 12 12 11 11 11 11 12 12 12
4 4 4 4 5 4 3 3 3 2 3 2 4 4 3 3 4 5 5 5 4 5 5 5 5 4 6 10 10 12 9 4 1 2 3 3 3 3 3 3 3 3 4 3 3 3 3 4 4 5 5 6 6 6 6 7 7 7 7 7 8 8 9 9 9 10 11 11 11 11 11 11 12 11 11 12 11 10 11 11 10 11 10 11 11
4 3 3 2 3 3 3 3 2 2 2 3 4 3 4 4 5 5 5 6 5 5 6 6 5 4 4 7 7 8 5 4 3 3 3 4 3 4 4 4 3 3 3 4 3 3 4 4 5 5 6 6 6 6 7 7 7 7 7 7 7 8 9 9 9 10 10 11 11 12 12 12 11 10 10 10 10 10 10 11 10 10 10 11 11
3 2 2 2 2 1 1 1 2 2 2 2 3 3 4 5 5 5 5 5 6 6 6 6 5 4 4 3 4 4 4 3 3 3 4 4 4 4 4 4 4 3 4 4 4 3 4 4 5 6 6 7 7 7 7 7 7 7 7 7 7 8 8 9 9 10 10 11 12 12 12 12 11 10 10 10 10 10 10 10 10 10 10 10 10
3 3 3 2 2 2 2 2 2 3 3 3 4 4 4 4 5 6 6 6 6 6 7 5 4 4 4 3 3 3 4 3 4 4 4 4 4 5 4 4 4 5 5 5 4 3 4 5 6 6 7 7 6 6 6 6 6 7 6 7 7 8 8 8 9 9 10 12 11 11 11 11 10 10 10 9 9 10 9 10 10 10 10 9 9
2 2 2 2 2 2 2 2 2 3 4 5 5 5 5 5 5 5 5 5 5 5 4 4 4 4 4 4 3 3 4 3 4 4 4 4 4 4 4 4 4 4 5 5 4 4 4 5 6 7 7 7 6 6 7 6 7 7 7 7 8 8 9 9 9 9 10 11 11 9 10 10 9 9 10 9 9 9 9 9 9 8 9 9 9
2 2 2 2 2 2 2 2 3 4 4 5 5 5 5 4 3 4 5 5 5 4 4 4 4 4 4 4 4 4 3 4 4 4 4 5 4 4 4 4 4 5 5 5 4 5 5 6 6 7 8 8 8 9 8 7 6 6 6 7 7 8 8 8 9 9 10 11 10 7 8 8 9 8 9 9 8 8 8 8 8 9 9 8 9
2 2 2 2 3 3 3 4 5 5 5 5 5 5 5 4 3 4 3 3 5 5 4 4 4 4 3 4 4 4 4 4 4 4 4 4 4 4 4 4 5 5 5 5 4 4 4 5 5 6 8 8 8 7 7 8 7 7 7 6 7 7 10 13 10 11 10 10 10 6 4 6 7 8 8 8 8 8 8 8 8 8 8 8 8
2 3 4 5 5 4 3 4 3 4 4 3 3 5 4 4 4 3 3 4 4 4 4 4 4 4 4 4 4 4 4 4 4 4 4 4 4 4 4 5 5 5 5 5 5 4 4 5 5 6 8 8 8 8 8 7 7 7 8 7 9 14 16 18 13 11 15 13 9 6 5 4 5 6 7 6 7 6 6 6 6 7 7 6 7
3 3 2 2 3 3 2 2 3 3 3 4 4 3 3 3 3 3 3 3 3 4 4 4 4 4 3 4 3 4 4 4 4 4 4 4 4 4 4 5 5 5 5 5 4 4 4 4 4 5 6 8 8 8 8 8 7 7 7 7 13 16 17 19 20 21 15 9 8 4 3 4 4 5 5 5 6 6 6 6 6 7 6 6 6
2 3 3 3 3 2 3 4 5 5 4 4 4 4 3 3 4 4 4 4 4 4 4 4 4 4 4 4 4 4 4 5 5 5 4 5 5 5 5 5 5 4 4 4 5 5 5 4 5 5 5 6 7 8 7 7 7 7 10 14 17 18 19 18 13 14 19 15 7 4 3 3 4 5 4 5 5 5 6 7 6 6 5 5 6
Wind_Direction
146 143 142 142 139 135 131 128 122 113 107 103 101 96 93 84 72 71 64 48 32 26 23 16 7 5 359 359 359 351 351 347 344 338 336 334 329 326 321 324 321 318 319 317 316 315 313 310 308 309 309 305 306 306 301 298 295 290 289 287 283 280 278 278 281 288 290 284 285 291 293 293 289 287 288 290 293 294 280 272 275 281 285 285 283
156 150 151 148 146 142 136 131 125 115 112 107 97 95 87 75 67 60 59 48 37 20 20 11 1 355 350 350 349 344 340 338 336 335 333 329 328 328 322 324 322 320 322 321 326 323 318 314 315 316 318 310 307 303 302 303 298 295 291 290 289 289 285 284 282 282 289 298 293 291 294 293 286 288 290 296 296 296 294 289 279 267 269 279 283
158 158 154 152 150 145 138 132 126 121 113 104 97 92 85 71 58 55 44 44 34 29 11 358 352 348 342 344 343 338 338 335 334 334 330 330 327 328 326 325 325 325 327 326 328 326 322 321 319 325 321 316 314 311 310 305 306 303 300 297 292 289 287 282 282 284 288 290 296 297 297 297 292 298 298 295 294 293 291 290 288 283 269 265 272
161 159 158 155 151 144 137 132 130 123 113 106 104 93 86 81 62 58 51 41 27 22 13 350 347 348 340 347 344 337 336 336 332 333 330 330 328 325 325 326 324 324 324 324 327 327 324 323 325 327 323 319 319 318 317 318 315 309 305 303 298 296 294 288 283 286 290 293 294 296 301 300 299 297 297 295 293 292 288 287 287 284 282 274 265
166 166 160 152 150 143 141 140 132 125 118 114 108 102 96 92 79 64 47 45 23 15 357 356 349 346 347 343 334 332 331 328 329 328 328 326 321 319 320 322 321 322 321 321 322 322 322 320 321 323 322 318 318 321 320 318 315 312 308 308 305 305 303 299 296 291 289 288 293 294 299 298 300 300 302 302 299 294 293 290 291 289 288 284 278
173 165 158 150 149 147 145 140 134 127 120 116 113 107 99 94 94 89 68 31 25 26 4 356 348 345 341 334 322 321 322 322 320 321 323 323 320 318 319 320 321 319 317 319 322 320 317 317 317 317 318 316 316 317 317 317 315 309 308 307 306 303 301 299 296 293 291 290 294 298 299 303 306 302 306 305 302 300 297 296 293 289 286 286 281
170 162 157 152 152 152 149 143 136 128 122 115 114 115 112 106 116 108 97 100 71 14 2 357 341 348 331 330 319 320 316 316 318 323 321 321 320 320 323 321 319 319 316 317 315 314 313 313 312 313 313 315 316 318 318 314 309 307 307 306 305 305 303 302 302 300 296 293 292 292 299 303 306 306 307 303 298 295 298 300 295 293 294 296 297
165 160 157 155 153 148 141 136 125 117 117 116 121 124 124 143 139 144 146 140 104 37 2 350 335 335 324 317 314 311 311 313 323 326 326 324 322 322 321 320 317 313 311 310 310 309 309 305 304 307 309 311 314 311 310 308 309 307 307 308 308 307 305 304 302 299 295 295 294 299 301 301 303 298 302 307 304 301 304 309 306 307 304 300 296
162 161 161 157 151 144 138 127 117 117 121 126 138 154 159 162 162 154 141 125 84 56 353 339 325 323 316 310 305 307 302 311 332 335 327 324 321 317 316 313 312 310 310 310 307 306 303 303 302 303 308 305 301 297 295 296 301 302 304 306 307 306 303 302 301 300 297 296 296 297 298 299 302 307 309 309 308 308 312 309 298 298 301 301 298
159 161 162 152 143 144 138 129 129 130 140 150 157 169 176 173 171 151 133 99 97 31 335 326 315 314 316 308 306 296 296 294 307 312 315 315 315 311 309 306 306 305 306 308 305 305 304 303 302 302 299 298 295 294 295 295 293 294 298 303 302 302 301 301 299 299 298 297 298 303 301 300 305 308 307 307 308 309 308 309 307 314 323 316 304
160 160 154 145 145 144 139 136 139 149 150 154 163 180 177 176 159 145 126 110 125 72 287 298 320 309 303 306 301 296 288 285 302 311 314 314 314 308 306 303 300 299 298 301 302 305 305 305 302 302 300 295 294 295 301 299 298 297 297 297 297 297 301 302 301 302 301 298 300 300 298 298 300 303 301 303 300 300 301 307 304 302 301 302 297
157 154 144 148 151 150 143 141 150 151 154 166 173 174 169 169 161 147 150 142 121 127 275 305 304 304 297 296 292 287 288 290 303 311 313 312 311 307 301 297 296 296 296 296 299 303 304 305 302 299 297 297 301 303 300 300 299 298 297 297 296 294 291 291 295 296 293 294 294 292 293 291 295 298 300 301 300 300 300 300 298 295 293 289 285
152 149 151 156 156 149 144 151 154 158 165 164 163 171 174 176 171 175 169 148 189 199 219 306 282 295 292 289 288 284 284 294 304 309 310 309 307 304 295 290 290 290 291 294 296 299 302 300 299 296 294 294 295 295 294 297 301 297 294 293 291 288 286 286 284 283 286 286 287 288 286 292 293 295 297 297 298 295 297 293 292 291 289 288 289
153 151 154 159 153 147 151 154 158 162 161 163 171 184 182 192 177 188 169 188 186 216 239 245 272 281 285 289 286 285 284 291 302 305 306 304 303 301 293 291 287 286 285 287 289 290 292 296 299 295 294 297 294 292 298 301 297 294 289 285 284 284 284 283 283 282 281 278 279 279 282 283 285 289 291 291 291 289 289 287 288 286 287 286 291
157 158 161 159 153 156 159 164 160 162 165 170 183 190 191 184 187 192 187 188 191 213 230 239 259 272 276 280 284 284 279 286 298 303 302 302 302 304 295 290 285 280 281 281 284 285 286 287 289 293 295 294 292 293 295 294 292 286 279 271 269 274 279 280 279 282 282 279 276 276 277 275 276 279 283 280 277 276 277 281 288 287 288 290 287
161 162 161 165 166 167 163 163 162 169 171 178 188 193 189 190 191 181 184 197 199 210 234 238 253 264 271 275 274 276 279 287 298 299 300 302 306 305 293 286 282 282 278 280 279 284 285 284 287 288 289 290 289 292 292 291 289 283 279 274 270 271 270 269 270 272 274 274 270 270 272 274 276 277 278 281 284 285 285 285 288 291 293 293 292
173 170 169 168 171 169 171 165 170 173 176 180 189 194 184 187 191 178 185 207 206 219 228 239 248 262 267 266 269 274 279 286 291 297 301 303 307 296 290 285 282 281 278 280 281 281 280 280 283 287 289 288 290 291 291 293 288 282 280 273 266 267 267 270 270 272 273 273 275 277 280 284 287 288 287 286 287 290 293 292 289 295 292 291 288
178 172 180 173 171 168 170 169 170 175 175 188 186 188 177 183 181 187 192 194 208 215 237 250 246 250 259 264 265 273 276 281 289 298 302 301 299 295 290 284 280 282 282 279 280 280 279 285 286 286 285 283 284 290 293 294 289 287 284 283 281 275 271 272 272 265 266 270 272 275 282 288 292 292 291 290 288 286 284 283 287 288 284 283 286
179 184 183 169 166 164 165 169 176 174 181 184 177 177 178 186 175 173 196 199 218 226 237 250 249 258 252 259 268 270 273 277 287 297 299 298 298 290 286 285 283 284 287 286 284 285 288 288 287 287 287 286 288 294 300 301 295 289 284 282 279 273 273 274 274 277 278 276 272 271 272 273 276 277 280 282 283 282 278 277 279 277 278 278 280
187 170 154 155 160 160 164 170 179 175 176 167 170 179 169 165 181 191 189 210 216 234 242 247 252 261 264 261 260 260 269 274 280 293 296 296 295 290 285 283 284 287 288 288 283 276 275 277 282 291 294 296 297 298 298 296 292 287 287 284 283 285 289 287 282 280 278 281 283 286 285 285 282 279 277 276 276 273 271 269 268 269 272 276 278
151 161 155 156 162 164 169 179 175 175 169 163 166 165 175 174 165 178 196 215 217 249 248 260 255 256 256 256 261 263 257 269 275 287 294 296 294 289 282 280 285 290 292 292 287 290 297 294 298 298 298 299 301 302 301 298 297 298 295 291 292 294 304 306 311 315 315 317 305 294 290 288 286 285 284 284 284 283 280 277 275 273 274 276 277
154 153 161 164 159 158 167 171 170 162 155 153 158 166 167 161 177 184 209 203 218 240 243 252 254 260 262 261 258 262 261 262 275 284 291 293 290 287 285 285 288 293 295 295 295 291 287 292 302 305 305 304 303 304 307 309 311 312 307 305 307 312 315 320 326 321 309 300 295 291 288 283 285 286 286 286 285 284 282 281 279 279 276 275 275
159 163 156 155 158 158 166 167 164 159 160 169 158 158 155 162 188 194 203 221 229 243 243 240 250 258 262 263 259 259 263 264 269 281 288 290 289 290 291 294 297 297 295 291 293 302 312 310 307 306 305 307 310 311 311 312 316 311 309 310 311 313 321 325 312 304 298 297 296 290 290 289 290 288 287 288 287 285 283 281 280 278 275 272 270
148 157 162 158 153 170 171 166 162 169 166 161 161 160 169 161 185 210 196 213 234 239 249 229 243 250 258 268 264 267 265 262 271 286 289 292 293 297 300 299 298 291 291 300 316 316 312 306 305 310 314 314 313 313 313 313 310 311 314 316 321 324 320 314 311 308 304 294 290 286 285 287 289 285 283 285 286 286 286 285 282 279 275 274 273
165 173 172 164 169 167 162 172 169 168 164 163 166 168 164 169 209 206 193 218 225 246 254 236 249 259 265 266 276 281 273 287 295 290 290 291 295 303 306 302 299 301 310 313 311 307 305 310 317 317 314 314 316 316 316 316 319 321 325 330 333 328 324 317 313 306 298 292 288 288 288 285 284 283 285 285 286 284 282 280 279 277 275 273 271
171 177 156 163 169 148 159 166 167 167 169 176 185 182 165 180 208 208 206 220 212 225 245 235 245 247 257 265 272 281 293 298 293 295 291 286 290 301 305 302 303 312 313 311 309 309 315 319 317 317 318 320 323 322 318 317 321 327 332 337 334 328 324 318 310 307 299 297 294 291 292 293 291 289 288 286 281 278 278 279 283 283 282 281 279
161 154 171 166 157 163 179 184 177 171 178 179 184 181 176 188 202 217 216 214 213 221 232 237 246 244 250 266 277 292 295 296 296 294 287 294 295 290 288 288 308 317 319 312 317 334 323 322 317 318 318 319 320 318 315 319 324 327 332 333 329 322 317 312 308 302 299 293 294 293 296 295 294 291 285 283 279 277 275 274 275 277 277 277 278
178 174 167 166 172 176 186 176 176 176 179 181 185 184 188 196 209 215 208 205 207 224 212 227 233 238 260 272 289 292 287 291 291 287 291 295 300 308 306 302 319 328 337 323 19 333 321 315 314 317 320 325 323 319 321 324 327 328 325 323 318 309 307 306 303 295 293 297 295 297 294 297 295 294 292 287 284 284 282 279 278 279 275 275 271
167 160 165 166 175 167 181 169 186 178 168 182 210 205 194 196 212 233 231 224 226 223 227 234 230 230 242 256 275 281 284 282 279 279 287 298 303 301 304 312 324 337 328 334 22 330 316 316 319 326 334 331 329 325 325 327 325 327 324 323 320 317 315 317 315 311 308 306 302 300 300 299 298 296 293 291 290 292 292 290 288 285 283 275 266
172 176 174 173 167 166 180 177 169 180 180 194 197 237 231 226 224 219 235 229 231 235 231 226 220 220 239 237 229 260 273 278 271 279 295 299 297 297 302 312 317 324 323 341 22 330 322 318 322 328 328 327 327 326 326 331 329 329 329 327 323 319 318 316 313 313 311 305 301 299 298 299 297 299 298 298 299 299 300 299 295 290 285 276 270
179 175 167 188 172 166 164 170 177 181 180 183 219 241 265 231 232 236 239 244 247 248 248 252 252 240 230 239 235 241 249 254 268 291 294 293 295 299 307 312 323 332 331 349 340 325 315 315 319 323 324 323 325 325 326 325 326 326 326 325 323 320 319 315 316 316 312 307 305 301 297 297 298 301 303 301 301 302 302 300 297 294 288 286 282
179 181 171 159 153 175 175 169 162 176 179 188 207 219 241 278 266 222 228 244 253 258 261 264 265 269 274 275 279 293 290 288 284 283 287 293 294 300 306 321 341 334 334 357 318 305 296 304 312 319 325 320 317 316 316 313 313 314 317 321 322 322 316 315 315 309 306 308 309 308 305 303 301 301 299 301 302 301 300 300 300 299 295 290 284
165 148 150 154 168 174 179 171 180 177 179 187 199 203 216 216 244 279 196 211 238 259 264 260 265 272 273 278 284 283 282 282 283 286 289 290 293 299 316 1 339 336 345 356 312 297 295 298 301 312 318 314 314 308 304 307 308 309 311 309 312 316 314 306 304 301 306 309 309 308 308 306 304 303 303 303 303 303 303 300 299 298 299 297 294
161 166 163 166 161 168 173 179 178 182 183 189 200 199 210 216 230 233 290 307 242 220 234 265 282 307 304 291 287 287 284 282 284 286 286 287 294 301 340 350 323 337 23 308 298 287 291 296 299 305 303 307 311 312 304 306 306 304 306 305 305 306 306 307 311 314 313 314 315 310 310 309 309 308 306 305 304 304 301 301 300 299 299 297 299
143 136 145 159 168 169 171 173 172 172 176 189 193 201 208 206 210 219 231 240 266 284 287 255 241 272 289 297 290 282 281 284 283 284 283 291 317 347 337 320 298 252 243 229 265 275 286 294 297 299 301 304 306 304 303 301 300 303 304 307 308 307 308 309 308 312 315 317 315 314 313 312 312 309 308 308 308 307 304 301 299 297 298 298 299
155 159 163 172 173 172 170 172 168 175 184 194 192 200 198 203 215 226 230 239 242 256 273 275 281 285 284 279 280 287 287 284 283 283 281 310 39 30 334 289 282 274 282 271 269 281 274 275 291 294 302 300 300 298 298 295 294 299 301 302 301 303 304 305 309 315 318 317 315 316 317 314 314 311 308 306 303 301 301 302 300 299 298 298 299
167 171 168 173 169 174 166 161 170 175 181 176 187 192 205 214 225 230 237 233 240 250 259 280 295 291 247 236 274 298 295 294 289 282 282 62 46 60 258 264 268 281 270 273 280 282 279 278 285 290 293 296 298 297 293 293 294 294 294 294 295 296 296 301 310 315 316 316 317 319 319 318 317 315 313 308 306 304 302 302 302 301 301 299 300
165 168 171 151 154 161 158 174 169 172 182 188 193 198 206 214 222 229 233 239 241 245 257 257 258 269 278 271 14 314 307 305 295 280 259 28 72 329 235 242 242 250 262 268 264 270 277 285 284 286 287 290 291 292 293 294 294 295 298 299 298 294 300 305 311 314 314 316 317 321 321 318 316 315 313 309 306 306 304 305 305 305 302 301 299
173 175 166 163 172 170 175 170 168 177 188 187 199 196 211 215 223 231 234 244 245 248 253 254 256 252 256 273 300 316 318 286 259 249 257 267 252 231 242 246 246 246 249 254 260 262 272 277 277 277 278 283 290 291 290 291 294 293 295 297 299 302 306 309 313 318 319 319 320 321 320 318 317 314 312 308 306 306 306 306 306 305 305 305 303
159 163 180 183 189 186 172 177 176 185 192 192 205 203 222 223 228 231 237 242 246 241 243 248 250 250 248 227 262 278 267 267 265 260 262 272 262 241 233 247 244 249 253 256 256 262 265 266 269 271 273 275 281 287 287 286 285 291 293 293 300 303 304 309 311 314 318 320 319 321 320 318 316 315 313 311 308 308 306 306 306 307 306 304 302
160 169 167 188 190 184 170 181 193 198 192 196 209 211 222 227 232 240 246 246 247 249 251 251 255 257 242 247 256 250 242 253 261 262 266 266 268 258 245 239 244 250 252 253 254 259 263 271 273 275 276 276 277 279 284 285 283 285 290 294 296 299 303 305 307 309 314 317 318 320 320 317 314 315 313 312 310 309 306 306 304 303 304 303 303
164 160 168 180 179 191 194 200 200 191 195 208 224 228 228 228 239 246 245 248 249 253 256 258 258 257 254 257 261 262 258 249 204 265 267 258 257 257 255 254 250 251 258 261 262 268 272 271 273 272 274 278 279 279 283 281 283 285 288 292 295 301 304 306 308 311 315 316 318 319 320 316 313 309 307 308 308 309 311 311 309 306 304 306 307
156 163 164 161 175 187 193 199 183 188 205 215 228 230 241 242 249 253 251 253 252 255 262 266 268 261 258 265 268 276 277 265 249 251 256 259 256 259 259 256 256 253 255 260 263 262 265 268 269 267 264 266 269 276 279 280 287 287 284 287 292 296 301 304 307 310 316 317 317 318 319 317 315 312 310 309 309 311 309 311 311 312 311 311 317
156 157 155 163 171 173 190 198 203 210 214 220 234 240 245 249 252 251 248 250 252 254 255 261 264 269 271 270 255 252 246 248 240 244 239 248 250 250 252 253 255 256 258 254 254 249 254 263 268 269 264 263 261 257 265 271 277 277 279 285 288 291 295 300 306 311 316 316 316 319 321 318 313 310 308 309 312 312 311 311 312 313 315 317 320
155 154 161 169 176 181 188 189 215 226 227 231 239 243 235 229 242 249 245 252 252 253 257 254 257 260 264 258 239 231 230 230 234 234 239 239 248 249 253 252 250 249 250 253 249 248 251 258 264 268 269 266 260 260 263 265 267 270 270 278 281 284 286 292 298 305 306 307 311 318 319 317 313 312 311 310 311 312 311 314 313 314 317 319 322
157 163 169 171 174 183 196 192 198 221 229 235 241 248 248 241 238 240 245 246 245 249 249 247 247 249 252 256 251 242 239 234 240 237 239 242 240 246 246 248 249 250 251 250 249 239 244 252 265 269 271 272 273 273 277 271 272 268 267 264 269 274 280 286 289 295 301 301 306 315 316 311 306 303 305 308 310 310 310 309 308 313 314 316 318
152 168 170 177 186 195 199 189 202 220 224 233 237 241 249 238 229 232 234 234 244 245 245 247 247 248 247 246 246 250 246 247 244 245 236 237 243 250 255 252 251 253 252 246 240 242 242 240 247 258 269 273 276 277 276 274 270 271 270 271 268 275 278 285 294 297 295 294 297 310 312 308 301 303 307 312 311 312 312 310 315 314 316 320 320
168 171 185 188 194 207 203 204 218 217 225 233 235 242 245 241 236 233 236 233 235 240 244 247 248 250 252 256 252 253 252 251 251 248 250 248 245 241 241 243 251 252 256 253 245 241 242 250 249 262 271 271 270 271 276 280 280 277 274 269 268 269 282 290 291 288 285 290 297 300 296 300 305 302 304 307 309 315 317 318 320 321 322 324 325
176 186 194 199 206 207 203 202 206 216 219 218 232 239 236 235 236 237 237 239 240 241 241 245 249 248 248 252 254 258 254 255 253 253 251 250 247 248 247 245 248 252 259 260 260 252 247 252 245 266 274 275 275 275 273 274 271 270 273 269 270 275 282 286 286 281 285 286 289 301 290 278 286 292 294 297 301 310 311 309 316 317 319 320 324
187 190 194 194 208 215 209 214 220 227 231 236 241 241 236 237 241 238 236 235 243 243 243 241 246 247 250 256 251 251 249 250 251 252 254 256 257 254 254 250 248 251 255 259 264 270 269 268 257 259 264 270 271 271 272 273 271 273 272 271 278 282 283 286 288 288 289 297 300 289 279 284 289 292 299 301 303 309 315 319 321 319 318 321 328
189 200 207 216 222 225 227 233 236 239 239 243 244 243 242 239 241 239 236 232 236 242 242 241 241 245 245 245 247 254 255 253 256 260 263 265 260 256 254 256 261 262 263 260 266 266 265 260 265 268 266 269 271 270 270 268 268 265 271 278 282 282 286 290 291 291 294 299 298 280 275 288 294 301 308 319 319 318 324 318 320 321 327 329 327